SL-12 DEB, 43527

Orbit data source: Space-Track

SL-12 DEB, 43527 is space debris in HEO originally from a launch on Mon, 01 Mar 2010 UTC launched from the Tyuratam Missile And Space Complex (TTMTR). Debris objects in space refer to the collection of defunct objects orbiting the Earth. Examples of debris include non-operational satellites, rocket bodies, and fragments generated from explosions, collisions, or faulty payload assembly.

Loading next visibility...
Identifier
43527, 2010-007Z
Orbit
HEO
Country
Flag of CISCIS
Related business
Manufacturer
RKKE
Mission
Spacecraft
Bus & Motor
Unknown
Mass
Unknown
Launch date (UTC)
2010-03-01 (16 years ago)
Launch vehicle
Unknown
Launch site
Tyuratam Missile And Space Complex (TTMTR)
Object type
Payload
Rocket body
Debris
Shape & HBR
Unknown shape, 0.6 m
Radar Cross Section
Medium (>0.1 m² and <1 m²)

Expand to show TLE details & history
Last TLE update: 3 days ago

TLE from 3 days ago
0 SL-12 DEB
1 43527U 10007Z   26036.11839431  .00000114  00000-0  93730-3 0  9997
2 43527  65.0190 231.9545 5590263 301.7113  15.5858  4.26496211118332
Epoch: 2026-02-05T02:50Z
TLE epoch observation values (Epoch: 2026-02-05T02:50:29.268Z)
Latitude
-0.0003°
Longitude
54.07995°
Altitude
2,165.904 km
Speed
8.277 km/s
True Right ascension
15h 27m 54s
True Declination
0° 00' 01"
Sunlit
Object was in daylight at epoch
Visualization orbit readout
Latitude
Unknown
Longitude
Unknown
Altitude
Unknown
Speed
Unknown
Apparent Right ascension
Unknown
Apparent Declination
Unknown
Sunlit
N/A
Visualization observer readout
Local Sidereal Time
17:55:19
Azimuth
Unknown
Elevation
Unknown
Doppler factor
Unknown
Orbital elements
Apogee altitude
18,660.76 km
Perigee altitude
704.165 km
Semi-major axis
16,060.6 km
Eccentricity
0.55903
Inclination
65.019°
RAAN
231.9545°
Arg. of periapsis
301.7113°
True anomaly
58.32185°
Mean anomaly
15.5858°
Eccentric anomaly
33.05741°
Mean motion
1.06635 °/min
Orbital period
337.6 mins
BSTAR
0.0009373
Loading maneuver chart data...
Computing Atmospheric mass density...
Loading historical data...
Loading historical data...
Loading historical data...
Loading historical data...
Loading historical data...
Loading historical data...
Loading historical data...

Documentation

Showing up to 5 results
|